Location: Fort Worth, Tx
(32.7431°N, 97.3695°W)
Time: 04:03:04
(UTC-05:00)

Altair - Pass Details

Date: 04 October 2023
Orbit: 1501 x 1682 km, 47.2° (Epoch: 06 December)

Event Time Altitude Azimuth Distance (km) Brightness Sun altitude
Rises 07:12:44 0° 296° (WNW) 4,835 - -16.1°
Exits shadow 07:15:45 - 304° (NW) 3,998 9.2 -15.5°
Reaches altitude 10° 07:16:13 10° 305° (NW) 3,873 9.2 -15.4°
Maximum altitude 07:25:15 37° 10° (N) 2,394 8.6 -13.5°
Drops below altitude 10° 07:34:26 10° 75° (ENE) 3,943 11.1 -11.6°
Sets 07:38:01 0° 84° (E) 4,932 12.4 -10.8°
